Location: McFarlands Corners
(41.4117°N, 81.3382°W)
Time: 18:33:07
(UTC+00:00)

Vanguard 1 Rocket - Pass Details

Date: 18 February 2026
Orbit: 653 x 4214 km, 34.3° (Epoch: 8 March)

Event Time Altitude Azimuth Distance (km) Brightness Sun altitude
Rises 16:26:15 0° 195° (SSW) 3,643 11.2 34.5°
Reaches altitude 10° 16:29:14 10° 177° (S) 3,041 11.3 34.7°
Maximum altitude 16:34:30 20° 133° (SE) 2,997 11.3 35.1°
Drops below altitude 10° 16:42:11 10° 92° (E) 4,688 11.4 35.5°
Sets 16:48:29 0° 79° (E) 6,441 11.8 35.9°
